This is the latest recevied weather packets stored in our database for station/object WA3NOA-2. If no packets are shown the sender has not sent any weather packets the latest 1 day(s).
| Time | Temp. | Humidity | Pressure | Rain* | Wind** | Luminosity | Snow |
|---|---|---|---|---|---|---|---|
| 1777983126 | 17.78° C | 65% | 1005.4 hPa | 0 mm | 1.34 m/s, 264° | - | - |
| 1777982826 | 17.22° C | 66% | 1005.4 hPa | 0 mm | 1.79 m/s, 247° | - | - |
| 1777982588 | 17.22° C | 67% | 1005.3 hPa | 0 mm | 1.34 m/s, 243° | - | - |
| 1777982526 | 17.22° C | 66% | 1005.2 hPa | 0 mm | 1.34 m/s, 250° | - | - |
| 1777982226 | 17.22° C | 66% | 1005.2 hPa | 0 mm | 1.34 m/s, 265° | - | - |
| 1777981926 | 17.22° C | 66% | 1005 hPa | 0 mm | 1.79 m/s, 263° | - | - |
| 1777981687 | 16.67° C | 67% | 1005 hPa | 0 mm | 0.89 m/s, 232° | - | - |
| 1777981626 | 16.67° C | 67% | 1005.1 hPa | 0 mm | 2.24 m/s, 217° | - | - |
| 1777981326 | 16.67° C | 68% | 1005.1 hPa | 0 mm | 2.24 m/s, 238° | - | - |
| 1777981026 | 16.11° C | 68% | 1005 hPa | 0 mm | 3.58 m/s, 219° | - | - |
| 1777980787 | 16.11° C | 69% | 1005.1 hPa | 0 mm | 1.79 m/s, 244° | - | - |
| 1777980726 | 16.11° C | 69% | 1005 hPa | 0 mm | 2.68 m/s, 263° | - | - |
| 1777980426 | 16.11° C | 70% | 1005.1 hPa | 0 mm | 0.45 m/s, 267° | - | - |
| 1777980126 | 15.56° C | 71% | 1005 hPa | 0 mm | 0.89 m/s, 249° | - | - |
| 1777979887 | 15.56° C | 71% | 1005 hPa | 0 mm | 0.89 m/s, 260° | - | - |
| 1777979826 | 15.56° C | 71% | 1004.9 hPa | 0 mm | 1.34 m/s, 244° | - | - |
| 1777979526 | 15° C | 72% | 1005 hPa | 0 mm | 0.89 m/s, 233° | - | - |
| 1777979226 | 15° C | 73% | 1004.7 hPa | 0 mm | 1.79 m/s, 268° | - | - |
| 1777978988 | 15° C | 74% | 1004.7 hPa | 0 mm | 1.34 m/s, 242° | - | - |
| 1777978926 | 14.44° C | 74% | 1004.7 hPa | 0 mm | 1.34 m/s, 246° | - | - |
| 1777978626 | 14.44° C | 75% | 1004.6 hPa | 0 mm | 0.89 m/s, 273° | - | - |
| 1777978326 | 14.44° C | 75% | 1004.6 hPa | 0 mm | 0.45 m/s, 263° | - | - |
| 1777978087 | 14.44° C | 75% | 1004.6 hPa | 0 mm | 0.89 m/s, 258° | - | - |
| 1777978026 | 14.44° C | 75% | 1004.5 hPa | 0 mm | 0.45 m/s, 259° | - | - |
| 1777977726 | 13.89° C | 76% | 1004.4 hPa | 0 mm | 1.79 m/s, 249° | - | - |
* Rain latest hour (hover to see other rain measurements)
** Current wind speed in m/s (hover to see current wind gust speed)